Theta_e
303 305 304 303 302 303 303 304 303 302 302 302 301 299 298 298 298 297 298 298 298 299 299 299 299 300 300 310 311 311 311 309 308 311 315 319 319 319 320 321 320 321 321 320 321 321 321
304 304 305 304 303 304 303 303 303 302 301 301 301 299 298 297 297 297 297 298 298 298 299 299 299 300 304 310 310 309 308 308 309 312 312 316 318 319 320 321 322 322 322 321 321 321 321
302 302 303 304 304 304 304 304 303 302 302 301 300 299 298 297 297 297 297 297 298 298 299 299 299 300 308 308 309 310 310 308 308 311 314 313 315 318 320 321 319 320 320 320 320 320 320
303 303 303 302 302 303 303 303 303 303 302 302 301 300 299 297 297 297 297 297 298 298 299 299 300 306 311 310 310 306 307 308 307 308 311 312 312 312 312 314 317 320 320 322 321 321 321
302 302 302 302 302 301 302 302 302 302 302 302 302 301 300 299 298 296 297 297 298 301 303 303 306 313 312 309 308 310 313 314 309 309 308 308 308 310 310 313 315 317 319 320 321 322 323
299 300 301 301 300 301 302 302 301 300 300 301 302 301 301 300 298 297 296 297 302 305 309 309 311 311 312 310 308 308 309 309 314 316 315 313 310 309 309 311 315 317 319 320 320 321 322
299 298 298 298 299 299 299 301 301 302 301 300 300 300 300 300 298 296 298 305 306 310 311 309 309 313 309 307 307 307 308 310 314 316 318 315 312 311 312 313 314 315 317 319 321 321 322
300 300 299 298 298 297 299 300 300 300 301 301 300 299 299 299 298 295 302 306 303 303 304 304 305 305 305 306 306 309 309 310 314 316 316 317 316 315 314 315 314 314 317 318 319 320 321
301 301 300 299 299 299 298 298 299 299 299 300 300 299 299 298 297 305 303 304 303 304 306 305 306 308 309 309 309 312 311 310 313 314 315 315 315 316 315 316 316 315 315 318 319 319 321
298 300 299 299 299 299 299 298 297 298 299 299 299 299 298 298 300 303 304 304 303 305 308 307 309 309 311 311 313 312 312 310 311 310 311 313 315 315 315 317 316 316 315 316 316 318 321
298 298 298 299 299 299 298 298 297 297 298 299 298 298 298 298 298 300 303 303 302 307 307 311 311 312 313 313 313 313 312 312 312 312 311 311 312 312 314 314 317 317 316 315 316 318 319
297 297 297 297 296 297 298 298 296 296 296 299 299 299 298 298 300 303 303 302 305 309 305 308 312 312 311 312 312 313 313 313 312 313 313 312 312 312 314 316 316 317 316 316 317 317 320
297 297 296 296 297 298 298 298 296 295 295 298 298 299 297 298 299 302 303 303 306 305 306 307 309 310 310 310 312 312 311 314 314 314 314 314 313 313 312 314 315 316 317 318 318 320 320
295 294 296 296 295 295 296 297 296 295 296 297 297 298 298 298 299 301 302 303 305 304 307 308 308 308 308 308 309 309 311 309 311 314 314 313 312 314 314 311 312 314 317 319 321 321 323
294 294 294 295 295 295 295 295 295 296 295 295 297 297 298 298 298 300 301 304 303 304 305 306 306 306 307 307 308 308 308 308 309 315 314 314 313 316 313 312 312 313 316 317 319 320 321
293 294 295 295 294 294 295 295 295 295 295 295 297 298 299 300 300 300 301 303 303 303 304 304 304 305 304 304 305 307 307 307 310 313 311 312 315 314 315 312 311 312 313 316 318 320 322
292 294 294 293 293 293 293 293 293 295 295 295 296 298 299 300 301 301 302 301 302 302 302 302 303 303 303 303 304 305 305 307 308 309 308 307 310 311 313 315 314 312 313 314 316 318 321
294 294 293 293 292 293 293 292 293 295 295 296 296 300 300 301 302 301 301 301 301 303 302 301 301 302 302 303 303 304 304 306 305 305 304 304 305 311 311 314 315 317 315 314 316 317 319
293 293 293 292 292 293 293 293 294 294 295 295 296 297 299 300 303 302 301 301 302 303 301 301 301 301 302 301 302 303 304 305 303 304 303 308 309 309 309 309 311 314 316 317 316 316 318
293 293 292 292 292 292 292 293 293 293 294 296 297 299 299 300 300 302 303 303 301 302 302 301 302 302 301 301 302 302 303 303 303 304 306 306 308 310 311 309 311 313 313 314 318 320 318
292 292 291 292 292 292 291 292 292 293 294 295 296 299 299 301 301 301 301 302 304 303 301 301 301 301 302 302 302 302 303 303 304 305 306 306 306 306 307 307 307 309 310 311 312 315 320
292 292 291 292 292 292 292 292 292 293 293 296 296 298 299 300 300 301 301 301 301 302 302 303 301 301 302 302 302 302 303 303 304 305 305 306 305 305 306 307 308 307 308 309 310 311 312
292 292 291 291 292 291 292 292 293 293 294 295 295 295 298 300 300 300 301 302 301 300 302 302 303 303 304 303 304 304 305 304 305 306 307 308 307 306 307 308 308 308 308 308 309 311 312
292 292 292 292 291 292 293 293 293 294 294 296 296 298 298 300 299 299 301 300 301 301 301 301 302 303 303 303 304 303 303 304 304 305 305 307 309 309 309 309 311 310 309 311 312 311 311
292 292 292 293 292 293 293 293 293 293 294 295 295 297 299 300 299 299 300 300 300 300 301 302 301 302 302 303 303 303 304 305 305 306 305 307 307 309 309 308 309 308 310 313 318 317 318
292 293 292 293 293 293 293 293 293 293 294 294 295 296 297 299 299 298 299 299 300 301 301 301 300 301 303 303 303 303 304 306 309 306 306 306 308 308 309 309 308 308 311 311 312 315 317
293 293 293 293 293 293 294 294 294 293 293 294 295 296 298 297 297 297 299 300 300 300 302 302 303 303 304 303 303 304 305 305 307 308 310 308 309 309 310 311 310 309 309 310 311 315 314
292 292 292 292 292 293 293 294 294 294 293 293 295 296 297 297 297 297 298 298 299 300 301 301 303 303 304 304 305 305 306 306 307 307 311 310 311 310 310 310 310 311 311 313 314 311 312
291 291 291 292 293 294 294 294 294 295 294 293 294 296 296 297 297 298 298 298 298 299 300 300 301 301 300 305 306 307 306 308 308 309 308 311 309 311 310 310 311 311 312 312 311 311 311
Wind_Speed
8 8 9 10 13 13 13 11 15 17 17 18 19 19 18 18 18 18 18 19 20 22 23 23 23 23 20 10 20 19 18 18 17 13 11 12 16 20 19 20 25 24 24 30 31 31 27
10 8 10 12 11 11 11 14 17 20 20 20 22 21 18 18 20 20 21 20 21 22 22 22 21 20 14 14 5 4 12 9 11 10 14 17 17 18 22 23 21 27 30 27 29 29 29
15 12 12 11 13 12 12 15 17 19 19 20 23 23 20 19 21 22 23 22 21 22 22 22 19 17 14 28 12 15 15 15 11 12 16 16 20 24 24 21 24 27 25 24 22 28 25
11 11 13 14 16 16 15 15 16 17 19 21 23 23 21 21 23 24 24 22 21 21 21 20 16 5 11 8 12 13 10 13 14 16 13 14 10 10 11 18 25 25 23 19 18 23 27
14 14 14 16 18 17 20 21 21 19 19 21 21 24 25 25 24 25 25 23 19 19 17 14 3 3 10 7 6 4 4 6 8 13 18 17 16 18 14 15 16 18 21 25 26 22 26
19 19 17 19 18 16 14 17 16 22 21 21 20 23 25 28 28 24 24 23 15 17 8 8 8 8 14 9 9 15 14 12 11 10 8 14 13 13 14 14 18 19 19 19 21 21 24
13 14 17 19 21 22 19 17 17 18 18 20 24 24 26 28 29 19 20 23 4 3 6 13 13 19 26 23 22 24 17 13 12 15 15 16 10 16 20 21 24 22 24 19 23 29 27
13 14 15 18 18 17 17 17 19 19 18 20 22 23 26 28 26 12 10 11 6 9 16 24 32 31 31 23 15 16 12 15 19 19 17 15 19 17 19 22 20 23 21 23 23 26 26
15 17 19 19 18 17 16 19 20 19 19 18 20 23 25 26 14 9 11 6 10 14 10 19 26 22 13 16 15 13 14 20 17 18 20 20 21 18 20 20 19 20 23 19 22 25 31
19 18 19 21 19 19 20 20 21 21 18 19 19 21 22 25 12 10 9 5 10 11 6 7 9 9 14 9 9 19 12 13 16 24 20 19 18 20 21 19 17 20 19 21 20 18 16
19 19 21 21 21 21 23 24 24 23 22 19 19 18 20 19 18 13 10 12 12 7 6 9 11 13 11 13 4 15 13 13 15 15 14 20 16 21 23 23 21 20 14 16 20 20 18
19 21 23 23 21 21 21 21 17 21 23 19 17 17 18 17 13 14 12 13 7 5 9 7 9 11 13 18 13 8 13 13 13 12 16 22 25 21 16 16 17 19 13 19 17 15 16
23 21 23 23 21 20 20 19 21 23 21 19 17 16 18 16 16 9 12 10 6 8 5 9 11 11 12 13 16 13 14 16 11 11 15 19 22 22 21 19 14 16 11 10 12 13 15
21 22 19 21 24 24 23 24 25 20 19 18 22 19 19 18 15 13 10 9 12 13 20 7 1 3 11 14 15 15 12 14 17 21 13 14 17 15 19 24 19 19 15 8 10 11 7
19 17 21 22 21 20 21 21 19 19 20 20 21 20 19 17 11 12 14 13 11 18 19 20 11 11 14 17 10 13 12 17 12 5 3 11 18 5 2 9 19 22 18 19 18 18 12
22 19 21 21 22 21 19 19 19 18 22 20 18 17 24 19 18 17 10 22 21 28 24 6 14 6 12 14 17 16 15 12 5 1 3 9 11 15 12 6 11 22 14 11 10 10 10
20 21 22 23 22 23 21 20 21 20 19 17 18 8 18 13 18 14 11 20 21 34 24 5 12 16 16 16 16 16 9 11 2 3 4 11 7 15 18 10 11 12 16 15 14 15 12
21 21 20 20 21 21 20 19 19 18 14 14 16 5 11 18 11 7 14 24 28 25 16 8 11 14 15 15 13 15 14 12 5 6 11 12 8 13 20 11 21 7 13 18 11 15 10
22 21 23 21 21 20 19 18 17 14 11 14 7 12 15 16 6 11 15 22 24 21 11 12 13 11 14 15 15 15 16 16 21 16 8 5 7 11 18 18 17 14 14 11 17 14 19
22 22 24 23 22 20 19 17 17 14 13 16 6 4 13 12 18 16 13 19 19 19 12 16 14 13 13 15 14 15 17 14 16 9 8 1 12 15 12 8 5 10 18 19 14 5 12
24 26 25 22 22 20 20 19 17 16 16 20 8 7 14 5 13 15 18 12 11 15 13 15 14 18 16 14 15 16 17 19 17 15 12 9 16 18 23 26 18 18 15 18 20 16 10
21 20 23 21 20 19 20 20 18 17 16 26 6 6 15 19 9 7 15 17 20 17 13 16 15 15 13 15 16 16 18 14 11 11 13 14 16 19 23 23 24 22 22 18 22 22 19
23 23 19 22 23 20 18 18 17 15 18 17 18 25 12 6 10 10 12 12 17 17 16 21 10 10 13 10 11 12 14 14 12 11 10 9 12 16 18 20 23 22 20 20 21 21 18
22 23 22 22 22 21 19 18 18 17 21 26 14 15 10 8 11 11 13 15 13 13 14 16 13 11 7 5 9 14 19 21 20 19 17 11 9 7 7 12 14 17 16 19 19 18 18
22 22 23 22 21 20 19 18 18 17 20 23 21 9 5 7 14 14 17 15 14 15 8 13 18 10 6 6 4 8 9 14 22 22 22 18 14 4 5 8 14 14 8 7 6 2 16
25 25 24 23 23 24 22 20 21 20 19 22 18 19 9 6 10 17 14 15 9 12 12 14 11 12 9 3 2 4 8 4 4 5 23 19 15 10 6 10 12 10 7 9 7 7 12
25 24 25 26 26 27 26 24 23 22 21 22 20 17 15 9 19 20 12 7 12 8 7 4 10 6 4 2 3 7 11 9 6 4 5 16 12 14 12 6 7 13 9 7 6 3 16
29 28 27 28 28 29 29 26 25 24 23 24 23 19 19 12 21 19 17 13 17 16 6 5 4 4 1 5 4 5 5 4 7 12 6 11 10 8 8 7 11 5 11 5 4 8 8
33 31 29 33 32 32 32 31 29 27 26 25 25 20 20 17 13 9 14 22 24 20 16 6 4 6 3 2 2 3 3 4 6 4 6 3 7 3 6 4 3 10 5 3 3 7 10
Wind_Direction
309 311 314 292 290 294 307 311 316 320 319 315 313 310 308 307 310 312 315 318 318 317 319 320 321 321 324 272 261 290 283 295 289 274 241 253 246 244 253 256 255 259 261 259 265 262 275
297 283 294 301 301 296 302 303 309 317 313 318 321 319 314 306 309 311 312 314 314 313 315 316 315 313 308 262 295 263 280 288 270 265 252 248 255 255 265 273 270 274 279 278 270 270 262
276 284 275 281 290 295 293 301 308 313 322 325 323 320 320 305 304 306 307 310 311 311 312 309 305 301 272 253 251 269 273 271 267 263 258 253 258 257 267 270 269 275 277 277 271 272 270
280 280 282 284 282 291 289 295 300 306 310 317 322 327 322 308 304 303 306 310 311 310 308 302 302 273 257 258 270 281 288 277 264 249 254 259 286 281 275 283 282 277 282 271 272 262 258
280 278 277 283 289 290 287 292 287 294 303 310 315 319 323 320 314 308 309 312 313 307 308 305 296 212 266 288 259 290 297 301 266 257 247 252 259 255 265 259 264 258 261 265 275 276 266
280 279 278 281 285 282 290 300 303 289 293 300 310 312 317 317 323 320 318 319 312 299 297 315 262 264 258 211 300 291 281 266 257 242 245 232 237 237 236 239 250 253 254 259 270 271 277
304 298 289 287 288 284 278 287 294 296 301 299 298 303 311 312 322 330 340 359 335 241 261 258 260 253 280 278 290 280 268 239 235 240 229 204 215 228 228 236 243 258 272 266 273 281 301
300 303 305 311 305 314 279 288 284 287 290 300 309 302 303 309 326 337 360 342 352 317 296 274 258 257 262 271 276 273 230 221 222 232 227 242 231 242 252 252 249 262 259 265 277 283 285
293 291 296 305 308 312 301 285 291 295 280 295 302 311 308 306 333 15 331 310 329 321 267 280 250 239 240 217 236 257 212 221 239 239 230 242 249 243 238 251 262 256 250 236 249 276 288
277 277 284 294 296 299 300 302 303 291 290 282 289 300 308 314 323 317 316 322 324 322 278 256 184 216 194 204 239 229 223 218 231 240 250 260 260 254 256 258 232 254 251 280 280 258 264
281 281 279 282 287 288 293 295 301 296 282 281 288 289 299 312 304 302 330 315 321 308 288 118 137 149 192 204 8 197 200 214 249 251 230 250 252 247 255 258 258 254 253 264 280 274 268
274 275 276 281 284 282 284 289 308 305 295 276 282 285 293 311 302 311 297 309 317 238 240 209 167 198 209 214 240 198 190 223 270 261 253 261 266 267 256 262 278 263 235 254 273 270 256
273 274 277 279 280 283 285 282 290 302 296 270 279 277 281 295 274 296 311 302 243 235 223 233 203 194 229 237 207 221 241 212 232 232 245 243 241 240 246 241 256 270 223 244 255 253 258
279 270 274 276 279 279 280 284 297 291 286 286 269 275 280 281 269 273 276 250 236 252 232 279 309 242 250 245 238 257 233 257 254 243 260 274 274 238 214 228 231 238 212 205 234 246 289
288 280 275 279 279 281 280 282 286 283 281 291 274 274 279 266 246 235 247 228 230 242 265 300 262 240 254 261 226 272 240 268 271 24 290 301 261 50 333 227 212 233 230 224 248 270 280
282 273 275 277 276 278 279 279 278 278 285 289 278 273 259 248 232 222 232 242 254 258 302 271 276 260 267 259 252 218 248 266 205 78 3 291 301 297 288 201 229 225 251 240 219 235 267
277 272 278 278 277 276 276 277 279 279 285 282 279 265 274 232 212 212 227 228 239 256 267 285 277 281 277 281 281 284 247 267 331 150 59 326 291 282 286 228 238 207 230 247 221 249 236
271 275 276 284 278 276 275 274 278 276 272 270 269 248 238 205 192 213 234 242 258 267 280 234 267 278 284 291 279 273 265 264 73 341 317 324 302 287 267 256 283 314 245 226 238 246 241
278 277 273 276 277 275 275 271 268 275 261 257 234 255 257 210 231 223 239 251 254 264 234 265 252 254 263 270 270 268 277 294 307 301 291 328 255 255 264 270 270 260 257 244 229 243 250
276 278 274 277 274 270 272 270 268 269 257 246 243 252 231 230 240 264 257 251 239 236 247 260 265 269 268 266 266 268 271 271 274 255 95 18 268 272 278 265 338 310 321 316 274 239 253
278 277 275 271 271 269 265 266 262 261 244 244 231 243 237 226 234 243 262 273 280 261 210 225 240 247 261 266 265 257 256 256 255 222 220 232 260 268 273 279 279 273 277 290 296 286 232
271 270 270 268 268 267 266 261 259 256 243 226 220 255 226 243 239 265 258 258 271 266 255 233 253 258 249 253 262 266 280 286 271 272 244 235 242 252 265 271 272 266 265 257 270 279 280
268 271 275 263 265 265 266 256 255 253 242 204 230 249 282 255 259 268 254 252 259 254 271 275 228 290 289 304 337 306 303 295 285 287 295 295 262 242 250 256 264 259 253 264 263 264 265
271 270 269 263 263 265 262 256 252 251 246 224 243 255 238 265 259 252 287 277 268 265 249 275 308 293 279 290 292 284 272 266 254 250 248 242 273 241 257 255 251 254 259 248 250 244 247
274 271 264 261 258 256 256 256 255 245 238 242 249 251 238 271 271 270 265 269 270 260 296 238 253 280 317 328 300 289 264 250 246 239 230 231 234 255 243 252 267 294 286 6 26 12 29
271 266 261 259 258 259 256 255 251 246 237 237 242 241 240 269 252 270 286 296 290 281 245 240 255 236 161 236 238 248 251 295 263 238 214 221 222 229 252 236 244 257 54 37 348 266 3
271 264 260 260 260 260 257 252 246 243 236 228 232 239 236 254 262 274 284 314 308 275 279 309 311 259 186 188 263 262 265 254 276 277 198 195 200 216 226 255 281 290 314 348 282 347 331
271 270 263 262 261 259 256 250 245 237 231 227 232 224 220 245 264 267 271 254 274 282 295 344 311 214 149 205 242 255 285 266 279 293 143 189 191 198 230 241 248 333 353 350 25 339 323
267 266 262 262 260 255 250 246 238 233 228 222 230 228 232 232 246 295 271 259 259 261 268 248 248 289 276 273 316 338 305 274 315 304 154 206 203 188 199 224 340 320 99 122 341 329 323